Location: Ambrosina
(19.9365°S, 43.9833°W)
Time: 01:05:54
(UTC+00:00)

Atlas Centaur 2 - Pass Details

Date: 11 May 2021
Orbit: 459 x 1308 km, 30.4° (Epoch: 20 June)

Event Time Altitude Azimuth Distance (km) Brightness Sun altitude
Rises 23:22:27 0° 244° (WSW) 3,665 6.1 -40.6°
Reaches altitude 10° 23:25:02 10° 238° (WSW) 2,838 5.4 -41.2°
Enters shadow 23:27:36 24° 227° (SW) 2,102 4.4 -41.8°
